map of TOP home
TOP - Airport
Location
City:  Topeka, Kansas, United States
Name:Philip Billard Municipal Airport
ICAO:KTOP
IATA:TOP
FAA LID:TOP

Details
Type:Airport (Airfield)
Use:Public/Civil
Latitude:3904'08"N (39.068823)
Longitude:9537'21"W (-95.622375)
Datum:WGS 1984
Elevation:881 ft (269 m)
Variation:2.31E (WMM2015 magnetic declination)
-0.10 annual change
Runways:2
Longest:5099 × 100 ft (1554 × 30.5 m), paved

Time
Time Zone:UTC-6 (DST-5)
Local Time:

Weather
METAR:KTOP 170153Z AUTO 00000KT 10SM CLR 02/M02 A3029 RMK AO2 SLP268 T00171022
TAF:KTOP 162320Z 1700/1724 35003KT P6SM SKC
FM171000 00000KT 4SM MIFG SKC
FM171500 15004KT P6SM SKC

Related Locations
Nearby:
Farthest:YAUG: 10711 mi / 17238 km
Augusta [Augusta Airport], WA, AU

Find:

   beyond  
but within

Other Information
Maps:
NOTAMs:
Links:
Sources:

  
  • flag of United States
  • flag of Kansas
  

Airport Diagram

Airport diagram for TOP

Airport diagram PDF

Sectional Chart

Flight Planning
at skyvector.com

Satellite Image

Google Maps Satellite view

 

Copyright © 2004-2018 Karl L. Swartz. All rights reserved.
The Great Circle Mapper name and logo are trademarks of the Great Circle Mapper.
All other trademarks mentioned herein belong to their respective owners.
Please see credits for attibutions and further copyright information.

  Follow gcmap on Facebook Follow gcmap on Twitter Follow gcmap on Google+ GCmap on LinkedIn

hCard Microformat

Geo Microformat